Content
SEND FEEDBACK

Daily
Averages
Monthly
Summary
United States of America

ANN ARBOR, MICHIGAN


Home > North America > United States > Michigan
Elevation: 759 feet     Latitude: 42 17N     Longitude: 083 43W

WEATHER
 
SELECT A DAY
Number of Records: 204,307;   Date Range: 1/1/95 - 9/14/14
 
SHARE

PRINT THIS DATA

[ ← Previous Day ]
WEATHER ALMANAC - FEBRUARY 24, 2013
[ Next Day → ]
[ °C ]   °F
Weather ElementAverageHighLow
Temperature27.4 °F36 °F (1:53 pm)14 °F (7:53 am)
Dewpoint21.3 °F26.1 °F (4:53 pm)12 °F (7:53 am)
Humidity78.5 %92 % (6:53 am)59 % (12:53 pm)
Barometer30.05 in30.17 in (9:53 pm)29.94 in (1:53 am)
Wind Speed7.8 mph17.3 mph (11:53 am)
Weather ElementAverage
Visibility8.3 mi
Wind DirectionWSW (246.4 °)

Weather ElementTotal
Precipitation---
Heating Degree Days40 (Base 65)
Averaged from 25 records on February 24, 2013
WEATHER CONDITIONS BREAKOUT
WIND DIRECTION BREAKOUT
WEATHER BY HOUR - FEBRUARY 24, 2013
[ °C ]   °F
Local TimeTemperatureDewpointHumidityBarometerVisibilityWind DirectionWind SpeedGust SpeedPrecipitationEventsConditions
1:53 AM19.0 °F15.1 °F85 %29.94 in9.0 miWSW (250°)5.8 mphScattered Clouds
2:53 AM21.9 °F18.0 °F85 %29.95 in4.0 miWest (260°)6.9 mph0.00 inSnowLight Snow
3:53 AM21.9 °F18.0 °F85 %29.95 in5.0 miWSW (250°)6.9 mph0.00 inSnowLight Snow
4:53 AM18.0 °F15.1 °F88 %29.96 in6.0 miWSW (240°)4.6 mph0.00 inMostly Cloudy
5:53 AM21.0 °F18.0 °F88 %29.97 in6.0 miWest (260°)4.6 mphOvercast
6:53 AM19.0 °F17.1 °F92 %29.99 in6.0 miWSW (250°)4.6 mphOvercast
7:53 AM14.0 °F12.0 °F92 %30.01 in3.0 miWSW (240°)3.5 mphClear
8:53 AM25.0 °F19.9 °F81 %30.02 in7.0 miWSW (250°)8.1 mphMostly Cloudy
9:53 AM28.9 °F21.9 °F75 %30.02 in7.0 miWest (270°)13.8 mphOvercast
10:53 AM30.0 °F23.0 °F75 %30.03 in10.0 miWest (280°)12.7 mphOvercast
11:12 AM30.2 °F23.0 °F75 %30.01 in10.0 miWNW (290°)15.0 mphOvercast
11:53 AM33.1 °F24.1 °F70 %30.04 in10.0 miWNW (290°)17.3 mphMostly Cloudy
12:44 PM33.8 °F23.0 °F65 %30.01 in10.0 miWest (280°)15.0 mphOvercast
12:53 PM35.1 °F21.9 °F59 %30.05 in10.0 miWNW (300°)12.7 mphOvercast
1:53 PM36.0 °F24.1 °F62 %30.05 in10.0 miWNW (300°)10.4 mphOvercast
2:53 PM34.0 °F24.1 °F67 %30.06 in10.0 miWNW (290°)13.8 mphOvercast
3:53 PM34.0 °F25.0 °F70 %30.08 in10.0 miWest (260°)8.1 mph0.00 inOvercast
4:53 PM35.1 °F26.1 °F70 %30.09 in10.0 miWest (280°)8.1 mphOvercast
5:53 PM34.0 °F26.1 °F73 %30.11 in10.0 miWest (280°)4.6 mphOvercast
6:53 PM33.1 °F26.1 °F75 %30.13 in10.0 miWest (280°)6.9 mphOvercast
7:53 PM30.9 °F25.0 °F79 %30.16 in10.0 miWSW (250°)3.5 mphOvercast
8:53 PM28.9 °F24.1 °F82 %30.16 in10.0 miWest (260°)3.5 mphPartly Cloudy
9:53 PM26.1 °F23.0 °F88 %30.17 in10.0 miWSW (250°)4.6 mphClear
10:53 PM21.9 °F19.0 °F89 %30.17 in8.0 miCalmClear
11:53 PM21.0 °F19.0 °F92 %30.17 in7.0 miCalmMostly Cloudy
Hourly data recorded from KARB, located miles away from Ann Arbor, Michigan







STORIES FROM OUR PARTNERS